Flag for U.S.A. Weather past 2 weeks in Shiprock, New Mexico, U.S.A.

Now
63 °F

Clear.


Feels Like: 63 °F
Forecast: 63 / 90 °F
Wind: 8 mph from West

Location: Four Corners Regional Airport

Current Time: Jul 6, 2015 at 5:28:37 AM

Latest Report: Jul 6, 2015 at 4:53 AM


Visibility: 10 mi

Pressure: 29.93 "Hg (25.11 "Hg at 1492m altitude)

Humidity: 68%

Dew point: 52 °F

Location of ShiprockLocation

Historic Weather in Shiprock — Graph

°F

Shiprock temperature yesterday

Maximum temperature yesterday: 88 °F (at 4:53 PM)
Minimum temperature yesterday: 63 °F (at 1:53 AM)
Average temperature yesterday: 73 °F

Past Weeks' High & Low Weather Summary

 TemperatureHumidityPressure
High98 °F (Jun 21, 3:53 PM)87% (Jul 5, 5:53 AM)30.11 "Hg (Jul 5, 5:53 AM)
Low56 °F (Jun 21, 4:53 AM)6% (Jun 22, 3:53 PM)29.73 "Hg (Jul 1, 5:53 PM)
Average78 °F36%29.94 "Hg
* Reported Jun 21 3:53 AM — Jul 6 3:53 AM, Shiprock, Weather by CustomWeather, © 2015

Note: Actual official high and low records may vary slightly from our data, if they occured in-between our weather recording intervals... More about our weather records

Advertising

Shiprock weather history for previous 24 hours

 ConditionsComfort  
Time TempWeatherWind HumidityBarometerVisibility
3:53 AM
Mon, Jul 6
63 °FClear.3 mph65%29.93 "Hg10 mi
2:53 AM64 °FClear.7 mph65%29.93 "Hg10 mi
1:53 AM67 °FClear.9 mph55%29.92 "Hg10 mi
12:53 AM66 °FClear.6 mph59%29.94 "Hg10 mi
11:53 PM
Sun, Jul 5
71 °FClear.21 mph44%29.94 "Hg10 mi
10:53 PM70 °FPassing clouds.24 mph59%29.96 "Hg10 mi
9:53 PM76 °FClear.9 mph35%29.90 "Hg10 mi
8:53 PM76 °FSunny.6 mph37%29.88 "Hg10 mi
7:53 PM80 °FSunny.6 mph32%29.86 "Hg10 mi
6:53 PM84 °FSunny.9 mph29%29.84 "Hg10 mi
5:53 PM84 °FPassing clouds.17 mph30%29.85 "Hg10 mi
4:53 PM88 °FPassing clouds.17 mph27%29.84 "Hg10 mi
3:53 PM87 °FPassing clouds.13 mph28%29.86 "Hg10 mi
2:53 PM84 °FScattered clouds.10 mph32%29.90 "Hg10 mi
1:53 PM81 °FScattered clouds.6 mph38%29.94 "Hg10 mi
12:53 PM80 °FSunny.7 mph39%29.96 "Hg10 mi
11:53 AM76 °FPassing clouds.No wind48%29.99 "Hg10 mi
10:53 AM73 °FSunny.3 mph59%30.00 "Hg10 mi
9:53 AM70 °FPartly sunny.3 mph66%30.02 "Hg10 mi
8:53 AM68 °FScattered clouds.No wind73%30.01 "Hg10 mi
7:53 AM66 °FOvercast.3 mph78%30.00 "Hg10 mi
6:53 AM65 °FPassing clouds.5 mph85%29.97 "Hg10 mi
5:53 AM64 °FOvercast.No wind87%29.96 "Hg10 mi
Weather by CustomWeather, © 2015

See weather overviewHow to use our weather pages